CW7054 Weather Reports


time (UTC)temp
C
wind
direction
speed
KPH
gust
KPH
rain 1hr
cm
rain 24hr
cm
rain mn
cm
humidity
%
barometer
mb
20260506183002 13 208 1.6 9.7 0.00 0.00 0.00 90 1008.9
20260506181602 13 183 3.2 12.9 0.00 0.00 0.00 89 1009.2
20260506180100 13 207 3.2 9.7 0.00 0.00 0.00 88 1009.2
20260506174602 13 203 3.2 16.1 0.00 0.00 0.00 87 1009.8
20260506173112 14 188 1.6 16.1 0.00 0.00 0.00 86 1009.9
20260506171600 14 196 1.6 11.3 0.00 0.00 0.00 85 1009.7
20260506170054 14 176 1.6 19.3 0.00 0.00 0.00 85 1009.8
20260506164556 14 165 3.2 16.1 0.00 0.00 0.00 85 1010.2
20260506163054 14 141 4.8 14.5 0.00 0.00 0.00 84 1010.3
20260506161602 15 232 3.2 14.5 0.00 0.00 0.00 83 1010.4
20260506160048 15 194 3.2 17.7 0.00 0.00 0.00 84 1010.8
20260506154546 15 211 3.2 12.9 0.00 0.00 0.00 85 1011.1
20260506153045 14 171 1.6 9.7 0.00 0.00 0.00 85 1011.1
20260506151600 15 167 3.2 14.5 0.00 0.00 0.00 84 1011.2
20260506150044 15 188 3.2 14.5 0.00 0.00 0.00 82 1011.4
20260506144543 15 149 1.6 14.5 0.00 0.00 0.00 84 1011.2
20260506143047 15 198 3.2 11.3 0.00 0.00 0.00 85 1011.2
20260506141540 15 183 3.2 14.5 0.00 0.00 0.00 85 1011.4
20260506140039 14 285 3.2 14.5 0.00 0.00 0.00 86 1011.3
20260506134536 14 225 1.6 16.1 0.00 0.00 0.00 86 1011.4
20260506133040 14 239 1.6 17.7 0.00 0.00 0.00 85 1011.3
20260506131536 14 259 1.6 8.0 0.00 0.00 0.00 85 1011.2
20260506130033 14 149 3.2 16.1 0.00 0.00 0.00 86 1011.4
20260506124534 14 250 3.2 11.3 0.00 0.00 0.00 86 1011.5
20260506123030 13 159 3.2 11.3 0.00 0.00 0.00 87 1011.4
20260506121529 13 254 4.8 12.9 0.00 0.00 0.00 88 1011.5
20260506120026 13 164 1.6 11.3 0.00 0.00 0.00 89 1011.4
20260506114537 13 154 3.2 12.9 0.00 0.00 0.00 89 1011.5
20260506113023 12 170 3.2 19.3 0.00 0.00 0.00 89 1011.5
20260506111522 12 191 1.6 11.3 0.00 0.00 0.00 90 1011.4
20260506110022 12 163 3.2 16.1 0.00 0.00 0.00 91 1011.4
20260506104523 12 178 1.6 8.0 0.00 0.00 0.00 91 1011.5
20260506103020 12 187 1.6 9.7 0.00 0.00 0.00 91 1011.5
20260506101535 12 205 1.6 11.3 0.00 0.00 0.00 91 1011.3
20260506100019 12 186 3.2 12.9 0.00 0.00 0.00 91 1011.3
20260506094519 12 260 1.6 12.9 0.00 0.00 0.00 91 1011.2
20260506093017 12 219 3.2 12.9 0.00 0.00 0.00 91 1011.4
20260506091520 12 240 1.6 12.9 0.00 0.00 0.00 91 1011.3
20260506090014 12 161 1.6 17.7 0.00 0.00 0.00 91 1011.4
20260506084518 12 156 1.6 11.3 0.00 0.00 0.00 91 1011.7
20260506083010 12 165 1.6 9.7 0.00 0.00 0.00 91 1011.9
20260506081510 12 185 3.2 9.7 0.00 0.00 0.00 90 1011.9
20260506073008 12 256 1.6 11.3 0.00 0.00 0.00 90 1011.9
20260506071513 12 217 1.6 14.5 0.00 0.00 0.00 90 1011.8
20260506061503 12 247 1.6 11.3 0.00 0.00 0.00 90 1012.0
20260506044601 12 206 1.6 12.9 0.00 0.00 0.00 89 1012.3
20260506043054 12 170 3.2 16.1 0.00 0.00 0.00 89 1012.3
20260506041603 12 198 3.2 17.7 0.00 0.00 0.00 89 1012.2
20260506040051 13 155 1.6 12.9 0.00 0.00 0.00 89 1012.2
20260506034553 13 311 3.2 12.9 0.00 0.00 0.00 88 1012.1
20260506033049 13 200 3.2 12.9 0.00 0.00 0.00 88 1012.3
20260506031552 13 311 1.6 17.7 0.00 0.00 0.00 87 1012.1
20260506030048 13 273 3.2 22.5 0.00 0.00 0.00 87 1012.1
20260506024548 13 197 3.2 16.1 0.00 0.00 0.00 87 1012.2
20260506023046 13 190 3.2 16.1 0.00 0.00 0.00 87 1012.2
20260506021551 13 159 4.8 14.5 0.00 0.00 0.00 86 1012.1
20260506020046 13 248 3.2 14.5 0.00 0.00 0.00 86 1012.0
20260506014552 13 247 3.2 11.3 0.00 0.00 0.00 86 1011.9
20260506013045 13 195 3.2 19.3 0.00 0.00 0.00 85 1011.8
20260506011545 13 229 3.2 12.9 0.00 0.00 0.00 85 1011.6
20260506010047 13 194 4.8 12.9 0.00 0.00 0.00 85 1011.4
20260506004546 13 194 3.2 16.1 0.00 0.00 0.00 84 1011.3
20260506003043 13 170 4.8 12.9 0.00 0.00 0.00 84 1011.1
20260506001605 13 169 4.8 14.5 0.00 0.00 0.00 84 1010.9
20260506000047 13 277 4.8 20.9 0.00 0.00 0.00 83 1010.6
20260505234549 13 217 4.8 16.1 0.00 0.00 0.00 83 1010.5
20260505233046 13 228 3.2 12.9 0.00 0.00 0.00 83 1010.3
20260505231549 13 170 3.2 14.5 0.00 0.00 0.00 83 1010.2
20260505230041 13 240 3.2 12.9 0.00 0.00 0.00 83 1010.2
20260505224542 13 136 3.2 12.9 0.00 0.00 0.00 83 1010.0
20260505223043 14 184 3.2 14.5 0.00 0.00 0.00 82 1009.9
20260505221544 14 228 3.2 19.3 0.00 0.00 0.00 82 1009.8
20260505220042 14 257 3.2 17.7 0.00 0.00 0.00 82 1009.8
20260505214555 14 245 3.2 16.1 0.00 0.00 0.00 81 1009.9
20260505213051 15 238 3.2 14.5 0.00 0.00 0.00 80 1009.8
20260505211537 15 264 3.2 19.3 0.00 0.00 0.00 80 1009.8
20260505210036 15 242 3.2 11.3 0.00 0.00 0.00 79 1009.7
20260505204538 15 167 1.6 11.3 0.00 0.00 0.00 78 1009.8
20260505203042 15 151 3.2 8.0 0.00 0.00 0.00 78 1009.8
20260505201546 15 172 3.2 19.3 0.00 0.00 0.00 79 1009.7
20260505200034 16 163 6.4 16.1 0.00 0.00 0.00 77 1009.9
20260505194533 16 186 3.2 19.3 0.00 0.00 0.00 77 1010.1
20260505193042 16 186 3.2 14.5 0.00 0.00 0.00 78 1010.4
20260505191527 16 250 1.6 12.9 0.00 0.00 0.00 78 1010.7
20260505190036 16 252 1.6 12.9 0.00 0.00 0.00 78 1011.0
20260505184526 16 256 3.2 14.5 0.00 0.00 0.00 79 1011.0